Hlavní strana
METAR-TAF:

METAR-TAF

Letiště :

Capital City Airport

Frankfort, Kentucky, Spojené státy americké

zeměpisná šířka: 38-11-05N, zeměpisná délka: 084-54-12W, výška: 245 m

Aktuální stav počasí

Zpráva byla vytvořena před 29 minutami, v 17:53 UTC
Bezvětří
Teplota 4°C
Vlhkost vzduchu 81%
Tlak 1021 hPa
Viditelnost: 16.1 km
Zataženo ve výšce 1400 ft

METAR: KFFT 181753Z AUTO 00000KT 10SM OVC014 04/01 A3014 RMK AO2 SLP210 T00440006 10044 20033 58006 $

Čas: 13:22 (18:22 UTC)


TAF: chybějící

Stav a předpovědi počasí z více než 4 000 letišť (zprávy METAR a TAF).

Červené a žluté tečky na mapě představují dostupné meteorologické stanice.

Když kurzor umístíte na tečku, zobrazí se název stanice.

Pak kliknutím zobrazíte stav a předpověď počasí.

Chcete-li změnit mapu, kliknutím na zelené tlačítko se znaménkem +mapu přiblížíte, kliknutím na zelené tlačítko se znaménkem – mapu oddálíte a kliknutím na zelené šipky přejdete na sousední mapy.


METAR-TAF: